Location: Curupao
(10.4996°N, 66.6442°W)
Time: 10:21:42
(UTC+00:00)

H-2A R/B - Pass Details

Date: 23 May 2024
Orbit: 732 x 832 km, 98.2° (Epoch: 20 June)

Event Time Altitude Azimuth Distance (km) Brightness Sun altitude
Rises 09:08:29 0° 355° (N) 3,366 5.6 -13.3°
Reaches altitude 10° 09:11:04 10° 346° (NNW) 2,429 4.7 -12.8°
Maximum altitude 09:15:48 32° 284° (WNW) 1,376 2.9 -11.7°
Enters shadow 09:20:15 11° 224° (SW) 2,319 3.9 -10.7°
